Hourly Data Report for September 22, 2017

All times are specified in Local Standard Time (LST). Add 1 hour to adjust for Daylight Saving Time where and when it is observed.

HALL BEACH A
NUNAVUT

68°46'33.000" N
81°14'33.000" W
9.10 m
2402354
71293
YUX

Download Data

Hourly Data (September 2017)
Hourly Data Report for September 22, 2017
Temp Definition
°C
Dew Point Temp Definition
°C
Rel Hum Definition
%
Wind Dir Definition
10's deg

Wind Spd Definition
km/h
Visibility Definition
km
Stn Press Definition
kPa
Hmdx Definition


Wind Chill Definition


Weather Definition


TIME
00:00 Legend Double Dagger -2.9 -3.6 95 32 13 16.1 101.80   -8 LegendNANA
01:00 Legend Double Dagger -3.0 -3.6 96 32 15 16.1 101.79   -8 LegendNANA
02:00 Legend Double Dagger -2.5 -3.3 94 33 17 16.1 101.79   -8 LegendNANA
03:00 Legend Double Dagger -2.5 -3.2 95 32 15 16.1 101.78   -7 LegendNANA
04:00 Legend Double Dagger -3.2 -3.8 96 32 17 16.1 101.76   -9 LegendNANA
05:00 Legend Double Dagger -3.4 -4.1 95 31 17 16.1 101.75   -9 LegendNANA
06:00 Legend Double Dagger -3.7 -4.5 94 31 17 16.1 101.73   -9 LegendNANA
07:00 Legend Double Dagger -3.2 -4.0 94 31 18 16.1 101.72   -9 LegendNANA
08:00 Legend Double Dagger -2.6 -3.9 91 31 21 16.1 101.71   -9 LegendNANA
09:00 Legend Double Dagger -1.6 -3.1 90 33 22 16.1 101.68   -8 LegendNANA
10:00 Legend Double Dagger -0.9 -3.2 84 35 21 16.1 101.66   -7 LegendNANA
11:00 Legend Double Dagger -0.2 -3.4 79 35 22 16.1 101.64   -6 LegendNANA
12:00 Legend Double Dagger 0.5 -3.5 75 36 18 16.1 101.62     LegendNANA
13:00 Legend Double Dagger 1.0 -3.7 71 35 22 16.1 101.60     LegendNANA
14:00 Legend Double Dagger 1.6 -3.5 69 35 21 16.1 101.58     LegendNANA
15:00 Legend Double Dagger 1.9 -4.0 65 34 21 16.1 101.57     LegendNANA
16:00 Legend Double Dagger 2.4 -3.2 67 34 18 16.1 101.55     LegendNANA
17:00 Legend Double Dagger 2.1 -2.6 71 33 11 16.1 101.56     LegendNANA
18:00 Legend Double Dagger 1.6 -2.3 75 33 17 16.1 101.54     LegendNANA
19:00 Legend Double Dagger 1.3 -2.3 77 33 17 16.1 101.54     LegendNANA
20:00 Legend Double Dagger 0.3 -1.9 85 31 21 16.1 101.53     LegendNANA
21:00 Legend Double Dagger 0.0 -2.4 84 31 22 16.1 101.52   -6 LegendNANA
22:00 Legend Double Dagger -0.4 -2.9 83 33 18 16.1 101.52   -5 LegendNANA
23:00 Legend Double Dagger -0.7 -2.6 87 34 22 16.1 101.50   -6 LegendNANA

Notes on Data Quality.

Legend

  • E = Estimated
  • M = Missing
  • NA = Not Available
  • ‡ = Partner data that is not subject to review by the National Climate Archives
Date modified: